Weather History for KM19 - October, 2011

Change the Weather History Date:

Wednesday, October 26, 2011

  Actual Average (KJBR) Record (KJBR)
Temperature  
Mean Temperature 67 °F 58 °F  
Max Temperature 77 °F 69 °F 87 °F (1931)
Min Temperature 56 °F 47 °F 31 °F (1961)
Degree Days  
Heating Degree Days 0 8  
Month to date heating degree days 127  
Since 1 July heating degree days 145  
Cooling Degree Days 2 1  
Month to date cooling degree days 48  
Year to date cooling degree days 1819  
Growing Degree Days 17 (Base 50)    
Moisture  
Dew Point 58 °F    
Average Humidity 74    
Maximum Humidity 93    
Minimum Humidity 62    
Precipitation  
Precipitation 0.00 in 0.12 in 2.00 in (1920)
Month to date precipitation 3.67  
Year to date precipitation 37.84  
Snow  
Snow 0.00 in 0.00 in 0.00 in (2002)
Month to date snowfall 0.0  
Since 1 July snowfall 0.0  
Since 1 September snowfall 0.0  
Snow Depth -    
Sea Level Pressure  
Sea Level Pressure 29.91 in    
Wind  
Wind Speed 12 mph (SSW)    
Max Wind Speed 23 mph    
Max Gust Speed 26 mph    
Visibility 9 miles    
Events Rain , Thunderstorm    
T = Trace of Precipitation, MM = Missing Value Source: NWS Daily Summary

Daily Weather History Graph

Daily Weather History Graph

Search for Another Location

Airport or City:

Trip Planner

Search our weather history database for the weather conditions in past years. The results will help you decide how hot, cold, wet, or windy it might be!

Date:

Astronomy

Oct. 26, 2011 Rise Set
Actual Time 7:20 AM CDT 6:16 PM CDT
Civil Twilight 6:54 AM CDT 6:42 PM CDT
Nautical Twilight 6:24 AM CDT 7:12 PM CDT
Astronomical Twilight 5:55 AM CDT 7:41 PM CDT
Moon 7:07 AM CDT (10/26) 6:01 PM CDT (10/26)
Length of Visible Light 11h 47m
Length of Day
10h 55m
Waning Crescent, 0% of the Moon is Illuminated
Oct 26
Waning Crescent
Oct 26
New
Nov 2
First Quarter
Nov 10
Full
Nov 18
Last Quarter

Hourly Weather History & Observations

Time (CDT) Temp. Dew Point Humidity Pressure Visibility Wind Dir Wind Speed Gust Speed Precip Events Conditions
12:56 AM 61.0 °F 50.0 °F 67% 29.98 in 10.0 mi South 8.1 mph - N/A   Clear
1:56 AM 61.0 °F 50.0 °F 67% 29.98 in 10.0 mi SSW 9.2 mph - N/A   Clear
2:56 AM 59.0 °F 50.0 °F 72% 29.96 in 10.0 mi South 12.7 mph - N/A   Clear
3:56 AM 61.0 °F 48.9 °F 64% 29.95 in 10.0 mi SSW 16.1 mph - N/A   Partly Cloudy
4:56 AM 59.9 °F 50.0 °F 70% 29.94 in 10.0 mi South 9.2 mph - N/A   Partly Cloudy
5:56 AM 57.9 °F 50.9 °F 77% 29.95 in 10.0 mi South 13.8 mph - 0.00 in   Clear
6:56 AM 57.9 °F 50.9 °F 77% 29.95 in 10.0 mi SSW 12.7 mph - N/A   Clear
7:56 AM 59.9 °F 52.9 °F 78% 29.95 in 10.0 mi North - - N/A   Mostly Cloudy
8:56 AM 63.0 °F 54.9 °F 75% 29.96 in 10.0 mi SSW 18.4 mph - N/A   Mostly Cloudy
9:56 AM 64.9 °F 55.9 °F 73% 29.96 in 10.0 mi SSW 16.1 mph 21.9 mph N/A   Mostly Cloudy
10:56 AM 70.9 °F 59.0 °F 66% 29.94 in 10.0 mi SW 20.7 mph - N/A   Partly Cloudy
11:56 AM 70.0 °F 61.0 °F 73% 29.93 in 10.0 mi SSW 21.9 mph 25.3 mph N/A   Overcast
12:56 PM 73.9 °F 61.9 °F 66% 29.90 in 10.0 mi SSW 23.0 mph - N/A   Clear
2:56 PM 77.9 °F 63.9 °F 62% 29.86 in 10.0 mi SSW 20.7 mph 26.5 mph N/A   Scattered Clouds
3:56 PM 75.9 °F 63.9 °F 66% 29.86 in 10.0 mi SW 13.8 mph - N/A   Mostly Cloudy
4:56 PM 75.9 °F 63.9 °F 66% 29.84 in 10.0 mi SSW 13.8 mph - N/A   Scattered Clouds
5:56 PM 73.9 °F 63.9 °F 71% 29.86 in 10.0 mi SW 6.9 mph - N/A   Overcast
6:56 PM 72.9 °F 63.9 °F 73% 29.86 in 10.0 mi SW 5.8 mph - N/A   Overcast
7:21 PM 69.8 °F 64.4 °F 83% 29.86 in 1.8 mi South 8.1 mph - N/A   Haze
7:37 PM 69.8 °F 64.4 °F 83% 29.86 in 2.0 mi South 12.7 mph - N/A   Haze
7:56 PM 68.9 °F 64.9 °F 87% 29.86 in 3.0 mi Calm Calm - 0.00 in Rain Light Rain
8:56 PM 70.0 °F 63.9 °F 81% 29.85 in 10.0 mi Calm Calm - 0.00 in   Partly Cloudy
9:56 PM 70.0 °F 64.9 °F 84% 29.86 in 10.0 mi West 9.2 mph - 0.00 in   Overcast
10:56 PM 63.0 °F 59.0 °F 87% 29.89 in 10.0 mi North 13.8 mph - 0.00 in   Overcast
11:56 PM 56.8 °F 54.9 °F 93% 29.94 in 8.0 mi NW 19.6 mph - 0.00 in Rain , Thunderstorm Rain